STARLINK-5753, 55581

Orbit data source: Space-Track

STARLINK-5753, 55581 is a payload satellite owned by SpaceX/Seattle (US) in LEO that was launched on Sun, 12 Feb 2023 UTC via an FALCON 9 launch vehicle from the Air Force Eastern Test Range (AFETR). Payload-class satellites include a variety of spacecraft equipped with specific instruments for various scientific and technological missions. These include communications satellites like Starlink; space stations such as the ISS; scientific satellites like the Hubble; Earth observation satellites from companies like Planet Labs, Umbra, and HawkEye 360; GPS; miniature CubeSats for education and research; and military/defense satellites.

Loading next visibility...
Identifier
55581, 2023-020N
Orbit
LEO
Country
Flag of USUS
Related business
Manufacturer
SpaceX/Seattle
Mission
Operational Commercial Communications
Bus & Motor
STARLINK, Unknown motor
Mass
305 kg wet, ~290 kg dry
Launch date (UTC)
2023-02-12 (4 years ago)
Launch vehicle
FALCON 9
Launch site
Air Force Eastern Test Range (AFETR)
Object type
Payload
Rocket body
Debris
Shape & HBR
Box + 1 Pan, 10.1 m
Radar Cross Section
13.562 m², Large (>1 m²)

Expand to show TLE details & history
Last TLE update: 21 hours ago

TLE from 21 hours ago
0 STARLINK-5753
1 55581U 23020N   26263.55185911 -.00000353  00000-0 -32924-5 0  9993
2 55581  43.0043 351.6137 0001120 272.9542  87.1181 15.27576493198633
Epoch: 2026-09-20T13:14Z
TLE epoch observation values (Epoch: 2026-09-20T13:14:40.627Z)
Latitude
-0.00004°
Longitude
153.49997°
Altitude
482.797 km
Speed
7.626 km/s
True Right ascension
23h 26m 27s
True Declination
0° 00' 00"
Sunlit
Object was in full shadow at epoch
Visualization orbit readout
Latitude
Unknown
Longitude
Unknown
Altitude
Unknown
Speed
Unknown
Apparent Right ascension
Unknown
Apparent Declination
Unknown
Sunlit
N/A
Visualization observer readout
Local Sidereal Time
03:13:04
Azimuth
Unknown
Elevation
Unknown
Doppler factor
Unknown
Orbital elements
Apogee altitude
485.773 km
Perigee altitude
484.235 km
Semi-major axis
6,863.141 km
Eccentricity
0.00011
Inclination
43.0043°
RAAN
351.6137°
Arg. of periapsis
272.9542°
True anomaly
87.13092°
Mean anomaly
87.1181°
Eccentric anomaly
87.12451°
Mean motion
3.81732 °/min
Orbital period
94.31 mins
BSTAR
-0.0000032924
Loading maneuver chart data...
Computing Atmospheric mass density...
Loading historical data...
Loading historical data...
Loading historical data...
Loading historical data...
Loading historical data...
Loading historical data...
Loading historical data...

Documentation

Showing up to 5 results
|